Meteo pe oră la Dziadkowo

Astăzi, 7 Martie, Duminică

Timp Temperatura Precipitaţii Vânt Presiune Umiditate
00:00 -2°C° 0 mm 5 m/s 754 mmHg 84%
01:00 -2°C° 0 mm 5 m/s 754 mmHg 84%
02:00 -2°C° 0 mm 5 m/s 753 mmHg 83%
03:00 -2°C° 0 mm 5 m/s 753 mmHg 83%
04:00 -1°C° 0 mm 5 m/s 752 mmHg 83%
05:00 -3°C° 0 mm 6 m/s 752 mmHg 85%
06:00 -3°C° 0 mm 6 m/s 752 mmHg 86%
07:00 -3°C° 0 mm 6 m/s 752 mmHg 87%
08:00 -2°C° 0 mm 6 m/s 751 mmHg 82%
09:00 -2°C° 0 mm 7 m/s 751 mmHg 77%
10:00 -1°C° 0 mm 7 m/s 751 mmHg 72%
11:00 -1°C° 0 mm 7 m/s 750 mmHg 71%
12:00 -1°C° 0 mm 7 m/s 750 mmHg 70%
13:00 0°C° 0 mm 7 m/s 750 mmHg 68%
14:00 -1°C° 0 mm 7 m/s 749 mmHg 68%
15:00 -1°C° 0 mm 7 m/s 749 mmHg 68%
16:00 -1°C° 0 mm 7 m/s 748 mmHg 68%
17:00 -2°C° 0 mm 6 m/s 748 mmHg 73%
18:00 -2°C° 0 mm 5 m/s 748 mmHg 77%
19:00 -2°C° 0 mm 4 m/s 748 mmHg 81%
20:00 -2°C° 0 mm 4 m/s 748 mmHg 81%
21:00 -2°C° 0 mm 5 m/s 748 mmHg 82%
22:00 -3°C° 0 mm 6 m/s 747 mmHg 82%
23:00 -2°C° 0.1 mm 5 m/s 748 mmHg 86%

Mâine, 8 Martie, Luni

Timp Temperatura Precipitaţii Vânt Presiune Umiditate
00:00 -2°C° 0.1 mm 5 m/s 748 mmHg 91%
01:00 -2°C° 0.1 mm 5 m/s 748 mmHg 95%
02:00 -3°C° 0.3 mm 4 m/s 748 mmHg 91%
03:00 -2°C° 0.3 mm 3 m/s 748 mmHg 87%
04:00 -2°C° 0.3 mm 2 m/s 747 mmHg 84%
05:00 -3°C° 0 mm 2 m/s 748 mmHg 84%
06:00 -3°C° 0 mm 2 m/s 748 mmHg 84%
07:00 -4°C° 0 mm 2 m/s 749 mmHg 84%
08:00 -3°C° 0 mm 2 m/s 749 mmHg 73%
09:00 -1°C° 0 mm 2 m/s 750 mmHg 62%
10:00 0°C° 0 mm 3 m/s 750 mmHg 51%
11:00 +1°C° 0 mm 3 m/s 750 mmHg 49%
12:00 +1°C° 0 mm 3 m/s 750 mmHg 47%
13:00 +2°C° 0 mm 3 m/s 751 mmHg 45%
14:00 +2°C° 0 mm 3 m/s 751 mmHg 47%
15:00 +2°C° 0 mm 3 m/s 750 mmHg 49%
16:00 +1°C° 0 mm 3 m/s 750 mmHg 52%
17:00 +1°C° 0 mm 2 m/s 751 mmHg 57%
18:00 -1°C° 0 mm 2 m/s 751 mmHg 62%
19:00 0°C° 0 mm 1 m/s 751 mmHg 67%
20:00 0°C° 0 mm 1 m/s 751 mmHg 68%
21:00 0°C° 0 mm 1 m/s 752 mmHg 69%
22:00 -1°C° 0 mm 1 m/s 752 mmHg 70%
23:00 -1°C° 0 mm 1 m/s 752 mmHg 71%

Poimâine, 9 Martie, Marţi

Timp Temperatura Precipitaţii Vânt Presiune Umiditate
00:00 -1°C° 0 mm 1 m/s 752 mmHg 72%
01:00 -1°C° 0 mm 1 m/s 752 mmHg 73%
02:00 -1°C° 0 mm 1 m/s 752 mmHg 74%
03:00 -1°C° 0 mm 1 m/s 751 mmHg 75%
04:00 -1°C° 0 mm 1 m/s 751 mmHg 76%
05:00 -1°C° 0 mm 1 m/s 751 mmHg 75%
06:00 -1°C° 0 mm 1 m/s 752 mmHg 75%
07:00 -3°C° 0 mm 2 m/s 752 mmHg 74%
08:00 -2°C° 0 mm 2 m/s 752 mmHg 69%
09:00 -1°C° 0 mm 2 m/s 752 mmHg 64%
10:00 +1°C° 0 mm 2 m/s 752 mmHg 59%
11:00 +1°C° 0 mm 2 m/s 752 mmHg 55%
12:00 +3°C° 0 mm 1 m/s 752 mmHg 52%
13:00 +3°C° 0 mm 1 m/s 752 mmHg 48%
14:00 +3°C° 0 mm 1 m/s 752 mmHg 48%
15:00 +3°C° 0 mm 1 m/s 751 mmHg 48%
16:00 +3°C° 0 mm 1 m/s 751 mmHg 48%
17:00 +2°C° 0 mm 1 m/s 751 mmHg 52%
18:00 +1°C° 0 mm 1 m/s 751 mmHg 57%
19:00 0°C° 0 mm 1 m/s 751 mmHg 61%
20:00 -3°C° 0 mm 2 m/s 752 mmHg 62%
21:00 -3°C° 0 mm 2 m/s 752 mmHg 63%
22:00 -3°C° 0 mm 2 m/s 752 mmHg 64%
23:00 -3°C° 0 mm 2 m/s 752 mmHg 65%

10 Martie, Miercuri

Timp Temperatura Precipitaţii Vânt Presiune Umiditate
00:00 -3°C° 0 mm 2 m/s 752 mmHg 66%
01:00 -3°C° 0 mm 2 m/s 752 mmHg 67%
02:00 -3°C° 0 mm 2 m/s 751 mmHg 68%
03:00 -3°C° 0 mm 2 m/s 751 mmHg 70%
04:00 -1°C° 0 mm 1 m/s 751 mmHg 71%
05:00 -1°C° 0 mm 1 m/s 751 mmHg 71%
06:00 -1°C° 0 mm 1 m/s 751 mmHg 70%
07:00 -3°C° 0 mm 2 m/s 751 mmHg 70%
08:00 -1°C° 0 mm 2 m/s 752 mmHg 63%
09:00 +1°C° 0 mm 2 m/s 752 mmHg 56%
10:00 +3°C° 0 mm 2 m/s 752 mmHg 48%
11:00 +3°C° 0 mm 3 m/s 752 mmHg 45%
12:00 +3°C° 0 mm 3 m/s 751 mmHg 42%
13:00 +4°C° 0 mm 3 m/s 751 mmHg 39%
14:00 +5°C° 0 mm 2 m/s 751 mmHg 43%
15:00 +5°C° 0 mm 2 m/s 750 mmHg 48%
16:00 +5°C° 0 mm 2 m/s 750 mmHg 52%
17:00 +4°C° 0 mm 2 m/s 750 mmHg 58%
18:00 +2°C° 0 mm 2 m/s 749 mmHg 64%
19:00 0°C° 0 mm 3 m/s 749 mmHg 70%
20:00 0°C° 0 mm 3 m/s 749 mmHg 71%
21:00 -1°C° 0 mm 4 m/s 749 mmHg 73%
22:00 -1°C° 0 mm 4 m/s 748 mmHg 75%
23:00 -1°C° 0 mm 4 m/s 748 mmHg 74%

11 Martie, Joi

Timp Temperatura Precipitaţii Vânt Presiune Umiditate
00:00 0°C° 0 mm 5 m/s 747 mmHg 74%
01:00 0°C° 0 mm 5 m/s 746 mmHg 73%
02:00 0°C° 0 mm 5 m/s 746 mmHg 73%
03:00 -1°C° 0 mm 6 m/s 745 mmHg 72%
04:00 +1°C° 0 mm 6 m/s 744 mmHg 72%
05:00 +1°C° 0.1 mm 6 m/s 743 mmHg 73%
06:00 0°C° 0.1 mm 7 m/s 742 mmHg 74%
07:00 +2°C° 0.1 mm 7 m/s 742 mmHg 75%
08:00 +2°C° 0.9 mm 7 m/s 741 mmHg 79%
09:00 +3°C° 0.9 mm 7 m/s 741 mmHg 84%
10:00 +3°C° 0.9 mm 6 m/s 740 mmHg 89%
11:00 +4°C° 0.1 mm 7 m/s 740 mmHg 83%
12:00 +6°C° 0.1 mm 7 m/s 739 mmHg 78%
13:00 +8°C° 0.1 mm 7 m/s 739 mmHg 72%
14:00 +8°C° 0 mm 7 m/s 739 mmHg 72%
15:00 +9°C° 0 mm 6 m/s 738 mmHg 71%
16:00 +9°C° 0 mm 6 m/s 738 mmHg 70%
17:00 +9°C° 0 mm 7 m/s 738 mmHg 71%
18:00 +9°C° 0 mm 7 m/s 737 mmHg 72%
19:00 +7°C° 0 mm 8 m/s 737 mmHg 73%
20:00 +7°C° 0.4 mm 8 m/s 738 mmHg 74%
21:00 +6°C° 0.4 mm 7 m/s 738 mmHg 75%
22:00 +7°C° 0.4 mm 6 m/s 738 mmHg 76%
23:00 +5°C° 0 mm 6 m/s 738 mmHg 78%

12 Martie, Vineri

Timp Temperatura Precipitaţii Vânt Presiune Umiditate
00:00 +6°C° 0 mm 5 m/s 738 mmHg 81%
01:00 +5°C° 0 mm 4 m/s 738 mmHg 83%
02:00 +5°C° 0 mm 4 m/s 738 mmHg 82%
03:00 +5°C° 0 mm 4 m/s 737 mmHg 81%
04:00 +5°C° 0 mm 5 m/s 737 mmHg 79%
05:00 +5°C° 0 mm 5 m/s 737 mmHg 79%
06:00 +4°C° 0 mm 6 m/s 737 mmHg 79%
07:00 +4°C° 0 mm 7 m/s 737 mmHg 78%
08:00 +4°C° 0.1 mm 8 m/s 737 mmHg 72%
09:00 +5°C° 0.1 mm 9 m/s 737 mmHg 65%
10:00 +6°C° 0.1 mm 10 m/s 737 mmHg 59%
11:00 +7°C° 0 mm 10 m/s 737 mmHg 56%
12:00 +7°C° 0 mm 10 m/s 737 mmHg 53%
13:00 +8°C° 0 mm 11 m/s 737 mmHg 50%
14:00 +7°C° 0 mm 10 m/s 737 mmHg 51%
15:00 +7°C° 0 mm 10 m/s 737 mmHg 53%
16:00 +7°C° 0 mm 9 m/s 737 mmHg 55%
17:00 +6°C° 0 mm 8 m/s 738 mmHg 59%
18:00 +5°C° 0 mm 6 m/s 738 mmHg 64%
19:00 +5°C° 0 mm 5 m/s 738 mmHg 68%
20:00 +3°C° 0 mm 5 m/s 739 mmHg 70%
21:00 +4°C° 0 mm 4 m/s 739 mmHg 71%
22:00 +3°C° 0 mm 4 m/s 739 mmHg 73%
23:00 +3°C° 0 mm 4 m/s 739 mmHg 72%
Arată mai mult

Formular de consimțământ

Meteoprog și furnizorii noștri de servicii pot stoca și accesa date personale, precum cookies, identificatori de dispozitiv sau alte tehnologii similare pe dispozitivul dumneavoastră și procesa astfel de date pentru a personaliza conținutul și reclamele, dar și pentru a oferi caracteristici de social media și pentru a analiza traficul.

  • Stocarea și/sau accesarea informațiilor pe dispozitivul dumneavoastră

    Cookies, identificatori de dispozitiv sau alte informații pot fi stocate sau accesate pe dispozitiv în scopurile indicate mai sus.

  • Reclame și conținut personalizat, evaluarea reclamelor și a conținutului, informații despre audiențe și dezvoltarea produselor

    Reclamele și conținutul pot fi personalizate pe baza unui profil. Pot fi adăugate date suplimentare pentru a personaliza mai bine reclamele și conținutul. Performanța reclamelor și conținutului poate fi măsurată. Pot fi obținute informații despre utilizatorii care au văzut reclamele și conținutul. Aceste date pot fi utilizate pentru a dezvolta sau îmbunătăți experiența utilizatorilor, sistemele și software-ul.

Dând clic pe ‘Sunt de acord’, permiteți utilizarea cookie-urilor menționate, a identificatorilor de dispozitiv, balizelor web sau altor tehnologii similare. Setările pot fi modificate din browser-ul dispozitivului dumneavoastră.

În anumite scopuri, interesele legitime pot prima asupra consimțământului. Puteți citi mai multe informații în acest sens în Politica privind Confidențialitatea Datelor și Cookie.